Wind_Speed
20 20 21 21 21 22 23 23 24 24 24 26 26 27 27 27 28 29 29 30 31 33 33 33 34 35 35 34 35 36 36 36 37 37 37 38 37 37
20 20 21 21 21 22 23 23 23 24 25 26 26 27 28 28 28 28 30 31 32 33 34 34 34 35 35 35 36 36 37 37 38 38 38 38 37 38
20 21 21 21 22 22 23 23 24 25 26 26 27 27 28 29 30 29 29 30 31 32 34 34 35 35 35 35 36 36 37 37 38 38 39 38 38 38
20 20 21 21 22 22 22 22 23 24 25 25 26 26 27 28 29 29 30 30 30 30 32 33 34 34 34 35 36 36 37 37 38 38 39 39 39 39
19 19 20 19 20 21 21 22 23 24 24 25 25 25 26 28 28 29 29 30 30 30 31 32 32 33 33 34 35 36 36 37 38 38 39 39 40 40
18 19 19 18 19 20 21 21 22 23 24 24 24 24 25 26 27 28 29 29 29 30 30 31 31 32 32 34 35 36 36 36 37 38 38 39 39 40
17 18 19 18 18 18 19 20 21 22 23 23 24 24 24 24 25 27 28 28 28 29 30 31 31 31 32 33 34 35 36 36 36 36 37 38 39 40
16 17 17 17 18 18 18 19 19 21 22 23 23 24 24 25 25 25 26 27 27 28 28 29 29 30 31 33 35 35 35 36 36 36 36 37 38 39
17 17 17 17 17 17 18 19 20 20 21 22 22 23 24 24 24 24 25 26 26 27 28 28 29 30 31 32 33 34 35 36 36 36 35 36 37 38
18 18 18 18 18 18 19 19 19 19 20 20 20 21 22 23 23 23 23 24 25 26 27 28 29 30 31 32 32 33 34 35 36 36 36 37 37 37
18 18 18 18 18 18 18 19 18 18 18 19 19 20 20 22 23 23 23 24 24 26 27 27 28 29 30 31 32 33 34 34 35 36 37 37 37 37
17 17 17 17 18 18 18 17 17 17 18 18 18 18 19 20 21 22 23 23 24 24 26 26 26 27 28 30 31 31 32 32 34 35 36 37 37 37
16 16 17 17 18 18 17 16 16 16 16 16 16 16 17 18 20 21 22 22 23 23 24 25 26 27 27 28 29 30 30 30 31 33 34 35 35 36
17 17 17 17 17 17 16 16 15 15 15 16 16 17 17 18 19 20 21 21 22 23 24 25 25 26 26 27 27 28 28 28 30 31 32 33 34 35
17 17 18 17 17 17 17 16 16 16 15 16 17 17 18 18 19 20 20 20 21 21 23 24 25 26 26 26 27 28 28 29 29 31 32 33 34 35
17 17 18 17 18 17 17 16 16 17 17 17 17 18 18 19 19 20 20 21 22 22 23 24 24 26 27 27 28 28 29 30 30 31 32 32 33 35
18 17 18 18 18 17 17 17 17 17 17 17 18 18 18 19 19 19 20 21 22 23 24 25 26 26 26 27 28 29 30 30 31 32 32 33 34 35
18 18 18 18 18 18 17 17 17 18 18 18 18 18 19 19 19 19 19 20 21 22 23 24 25 26 27 27 28 29 30 31 32 32 33 33 33 34
18 18 19 19 19 19 19 18 18 19 19 19 19 19 19 20 20 20 20 20 22 22 23 24 25 26 27 27 28 29 30 30 31 32 33 33 33 33
19 19 20 20 20 20 19 19 20 20 20 21 20 20 20 21 21 21 21 22 22 23 24 24 25 26 26 26 27 28 29 30 30 31 31 32 32 33
20 21 22 22 21 21 20 20 20 21 21 21 21 21 21 21 21 22 22 22 22 23 24 25 25 25 25 26 26 27 29 30 30 30 31 31 31 31
21 22 23 23 22 22 21 21 21 21 22 22 21 21 21 22 22 22 22 22 22 23 24 24 25 25 26 26 26 27 27 28 29 30 30 31 31 32
21 23 23 23 23 22 22 21 22 22 22 22 21 21 21 22 22 22 21 21 22 23 24 24 25 26 25 26 26 26 26 27 28 28 28 28 29 30
Wind_Direction
285 284 280 276 272 268 265 265 264 262 260 260 260 259 257 256 255 254 252 250 248 247 246 246 246 245 244 244 243 243 243 244 245 246 245 245 245 246
286 284 283 279 275 270 268 266 265 264 261 262 262 260 258 256 256 256 254 253 251 249 248 247 247 246 244 245 244 244 245 245 246 246 246 246 245 246
290 286 284 283 280 274 270 268 268 265 264 263 261 260 260 257 255 257 257 255 252 251 249 247 246 246 245 245 243 244 245 246 246 246 246 247 247 247
289 290 287 284 281 277 275 273 272 269 268 267 264 261 260 259 257 256 256 254 253 253 251 249 247 247 247 246 244 244 245 246 246 246 247 247 247 247
294 295 292 290 287 280 277 276 275 273 271 270 269 265 262 261 260 258 257 255 254 254 252 252 249 248 248 247 245 245 246 247 248 248 248 249 248 247
298 298 298 294 290 285 280 278 278 275 273 272 270 268 266 263 262 259 257 255 254 253 252 251 250 249 249 248 247 247 247 248 249 250 249 249 249 248
300 300 299 296 292 289 284 281 279 279 276 273 270 268 267 265 261 260 259 256 255 255 254 251 250 250 249 249 248 249 249 249 250 249 249 249 249 249
302 303 302 301 297 294 289 286 283 281 276 273 271 269 267 266 262 261 260 257 256 257 256 255 254 252 251 251 251 251 251 251 251 250 250 250 250 249
302 303 302 302 301 299 296 294 290 286 280 277 275 271 268 266 264 262 262 259 258 258 256 256 256 254 252 251 252 252 252 252 252 252 251 251 250 250
303 302 300 300 303 301 298 297 294 289 284 280 277 274 271 268 267 266 264 262 261 260 259 258 257 255 255 255 255 254 253 252 251 251 251 251 250 251
308 307 304 303 304 305 299 297 295 292 287 282 280 279 274 272 270 267 266 265 263 261 260 257 256 256 256 256 256 256 255 252 252 251 251 252 251 252
313 312 310 309 307 309 307 304 300 298 296 291 286 283 278 276 273 268 267 267 266 264 262 261 260 259 258 258 258 257 255 253 252 251 251 251 251 251
318 317 314 311 310 310 309 306 305 304 303 299 293 287 283 280 276 273 270 269 268 266 265 265 264 262 261 260 259 257 257 257 256 255 255 254 253 253
319 320 320 319 317 316 314 310 309 308 307 304 298 293 289 284 280 279 277 275 272 269 267 266 265 264 263 262 261 259 259 260 260 259 257 256 254 254
324 325 324 323 321 319 319 318 315 312 309 307 304 300 295 290 285 283 281 278 275 273 270 268 266 265 265 264 263 262 261 261 262 261 260 258 257 257
333 332 333 329 324 320 320 318 315 313 313 310 304 301 298 294 290 287 283 280 278 276 274 271 269 268 267 266 265 264 263 263 263 263 262 260 259 257
337 337 335 333 330 325 322 320 318 316 315 313 309 303 299 297 294 290 286 283 282 280 278 276 273 272 270 269 267 265 264 264 265 265 264 263 263 261
341 340 337 333 330 327 324 321 320 319 316 313 309 305 301 297 294 293 290 287 286 285 283 280 277 274 273 271 269 268 266 265 266 265 264 265 264 262
343 341 338 335 331 327 325 324 322 319 318 316 312 308 305 301 298 295 293 292 291 289 287 284 280 278 274 272 272 270 269 267 266 265 265 264 263 261
344 342 340 338 335 331 328 326 325 323 320 318 315 312 308 305 303 299 296 294 293 291 289 287 285 283 280 277 275 274 273 271 269 267 265 264 263 262
345 344 342 340 339 337 334 331 328 326 323 321 319 315 311 308 306 303 299 298 296 293 290 289 288 286 283 280 279 277 275 273 271 268 266 265 264 262
346 345 344 344 342 340 338 336 334 332 328 325 321 318 315 313 310 307 304 301 299 297 295 293 291 290 287 283 280 278 277 276 273 271 268 267 266 264
347 347 347 346 344 341 339 337 334 332 330 328 325 321 318 317 316 313 310 307 304 302 299 297 294 292 289 286 283 281 280 279 277 274 271 270 269 267
Height
5719 5717 5716 5715 5714 5713 5713 5713 5713 5713 5713 5713 5712 5712 5713 5714 5714 5715 5716 5717 5718 5720 5721 5723 5725 5727 5730 5732 5734 5737 5739 5742 5745 5747 5749 5752 5754 5756
5713 5711 5710 5709 5707 5707 5706 5706 5705 5705 5705 5705 5705 5705 5705 5705 5706 5707 5708 5708 5710 5711 5713 5714 5716 5718 5721 5723 5725 5728 5731 5733 5736 5738 5740 5743 5745 5747
5707 5705 5703 5702 5701 5700 5699 5699 5698 5698 5698 5697 5697 5697 5697 5697 5698 5699 5699 5700 5701 5702 5704 5705 5707 5709 5711 5714 5716 5719 5721 5724 5726 5728 5731 5733 5735 5738
5701 5699 5697 5695 5694 5693 5692 5692 5691 5690 5690 5689 5689 5689 5689 5689 5690 5690 5691 5691 5692 5693 5694 5696 5698 5700 5702 5704 5707 5709 5711 5714 5716 5718 5721 5724 5726 5727
5696 5693 5691 5688 5687 5686 5686 5685 5684 5683 5682 5682 5681 5681 5681 5681 5681 5682 5682 5683 5684 5685 5686 5687 5689 5690 5693 5695 5697 5700 5702 5704 5706 5708 5710 5713 5715 5717
5690 5688 5685 5683 5682 5680 5679 5678 5677 5676 5675 5674 5673 5673 5673 5673 5673 5673 5674 5675 5675 5676 5677 5678 5680 5681 5684 5685 5688 5689 5691 5693 5696 5698 5700 5702 5705 5707
5685 5683 5681 5678 5676 5674 5673 5672 5670 5669 5668 5667 5666 5666 5665 5665 5665 5665 5666 5666 5667 5668 5669 5670 5671 5673 5674 5676 5677 5679 5681 5683 5685 5688 5690 5692 5694 5696
5680 5678 5676 5673 5671 5669 5667 5665 5664 5662 5661 5660 5659 5659 5658 5658 5658 5658 5658 5658 5659 5661 5661 5662 5663 5664 5665 5667 5668 5670 5671 5673 5675 5677 5679 5681 5683 5685
5676 5673 5671 5668 5665 5663 5662 5660 5658 5656 5655 5654 5652 5651 5651 5650 5650 5650 5650 5651 5651 5652 5653 5654 5654 5655 5656 5657 5658 5660 5661 5663 5665 5667 5669 5671 5673 5675
5671 5668 5666 5663 5661 5658 5657 5654 5652 5650 5648 5647 5646 5645 5644 5643 5643 5643 5643 5643 5644 5644 5644 5645 5646 5647 5647 5648 5649 5650 5651 5653 5654 5656 5658 5660 5662 5664
5666 5663 5661 5658 5656 5653 5651 5649 5646 5644 5642 5640 5639 5638 5637 5636 5636 5636 5636 5636 5636 5636 5636 5637 5637 5638 5639 5639 5640 5640 5641 5643 5644 5646 5648 5649 5651 5653
5662 5659 5656 5654 5651 5648 5646 5643 5641 5639 5637 5635 5633 5632 5631 5630 5629 5629 5629 5629 5629 5629 5628 5629 5629 5629 5630 5631 5631 5631 5632 5633 5634 5636 5637 5639 5640 5642
5658 5655 5652 5650 5647 5644 5641 5639 5636 5634 5631 5630 5628 5627 5625 5625 5624 5623 5622 5622 5622 5621 5621 5621 5621 5621 5622 5622 5622 5622 5623 5624 5624 5626 5627 5628 5629 5631
5654 5651 5648 5646 5643 5639 5636 5634 5632 5629 5627 5625 5623 5621 5620 5618 5617 5616 5615 5615 5614 5614 5614 5613 5613 5613 5613 5613 5614 5614 5614 5614 5615 5616 5616 5617 5619 5620
5651 5648 5645 5641 5638 5635 5633 5630 5628 5625 5623 5621 5618 5616 5614 5613 5611 5610 5609 5608 5608 5607 5606 5606 5605 5605 5605 5605 5605 5605 5605 5605 5605 5606 5607 5607 5608 5609
5648 5644 5641 5637 5634 5631 5629 5626 5623 5621 5618 5616 5613 5611 5609 5607 5605 5604 5603 5602 5601 5600 5599 5598 5597 5597 5597 5596 5596 5596 5596 5596 5596 5596 5596 5597 5597 5598
5645 5641 5638 5634 5631 5628 5625 5622 5619 5616 5614 5611 5608 5606 5604 5602 5600 5598 5596 5595 5594 5592 5591 5590 5589 5589 5588 5587 5587 5586 5586 5586 5586 5585 5586 5586 5587 5587
5642 5638 5635 5631 5628 5624 5621 5618 5615 5612 5609 5606 5603 5600 5598 5596 5594 5592 5590 5588 5587 5585 5584 5582 5581 5580 5579 5578 5577 5577 5576 5576 5575 5575 5575 5575 5576 5576
5640 5636 5632 5628 5624 5620 5616 5613 5610 5607 5603 5600 5597 5595 5592 5590 5588 5585 5583 5582 5580 5578 5576 5574 5572 5571 5570 5569 5568 5567 5566 5566 5565 5564 5564 5564 5565 5565
5638 5634 5630 5625 5620 5616 5612 5609 5605 5602 5598 5595 5592 5589 5586 5583 5581 5579 5577 5574 5572 5570 5568 5566 5564 5562 5561 5560 5559 5557 5556 5555 5554 5554 5553 5553 5553 5553
5635 5631 5626 5622 5617 5613 5608 5604 5601 5597 5593 5590 5587 5583 5580 5577 5575 5572 5569 5567 5564 5562 5560 5557 5555 5553 5551 5550 5549 5548 5546 5545 5544 5543 5543 5543 5542 5542
5633 5628 5624 5619 5614 5609 5605 5601 5597 5593 5589 5585 5581 5578 5575 5571 5568 5565 5562 5559 5557 5554 5551 5549 5546 5544 5542 5541 5539 5538 5536 5535 5533 5532 5532 5532 5531 5532
5631 5626 5621 5616 5611 5606 5602 5598 5593 5589 5585 5581 5577 5573 5569 5566 5562 5558 5555 5552 5549 5546 5543 5541 5538 5535 5533 5531 5530 5528 5526 5525 5523 5522 5522 5521 5521 5521